Timestamp (UTC),Height (m)
2024-04-13T21:15:00Z,1.03
2024-04-13T21:30:00Z,1.03
2024-04-13T21:45:00Z,1.02
2024-04-13T22:00:00Z,1.02
2024-04-13T22:15:00Z,1.02
2024-04-13T22:30:00Z,1.01
2024-04-13T22:45:00Z,1.01
2024-04-13T23:00:00Z,1.01
2024-04-13T23:15:00Z,1.01
2024-04-13T23:30:00Z,1.00
2024-04-13T23:45:00Z,1.00
2024-04-14T00:00:00Z,1.01
2024-04-14T00:15:00Z,1.00
2024-04-14T00:30:00Z,1.00
2024-04-14T00:45:00Z,1.00
2024-04-14T01:00:00Z,0.98
2024-04-14T01:15:00Z,0.99
2024-04-14T01:30:00Z,0.99
2024-04-14T01:45:00Z,0.99
2024-04-14T02:00:00Z,1.00
2024-04-14T02:15:00Z,1.00
2024-04-14T02:30:00Z,1.00
2024-04-14T02:45:00Z,0.99
2024-04-14T03:00:00Z,0.99
2024-04-14T03:15:00Z,0.99
2024-04-14T03:30:00Z,0.98
2024-04-14T03:45:00Z,0.99
2024-04-14T04:00:00Z,0.99
2024-04-14T04:15:00Z,0.98
2024-04-14T04:30:00Z,0.98
2024-04-14T04:45:00Z,0.98
2024-04-14T05:00:00Z,0.97
2024-04-14T05:15:00Z,0.98
2024-04-14T05:30:00Z,0.98
2024-04-14T05:45:00Z,0.98
2024-04-14T06:00:00Z,0.98
2024-04-14T06:15:00Z,0.98
2024-04-14T06:30:00Z,0.98
2024-04-14T06:45:00Z,0.98
2024-04-14T07:00:00Z,0.98
2024-04-14T07:15:00Z,0.98
2024-04-14T07:30:00Z,0.97
2024-04-14T07:45:00Z,0.97
2024-04-14T08:00:00Z,0.97
2024-04-14T08:15:00Z,0.97
2024-04-14T08:30:00Z,0.98
2024-04-14T08:45:00Z,0.97
2024-04-14T09:00:00Z,0.97
2024-04-14T09:15:00Z,0.98
2024-04-14T09:30:00Z,0.97
2024-04-14T09:45:00Z,0.97
2024-04-14T10:00:00Z,0.97
2024-04-14T10:15:00Z,0.97
2024-04-14T10:30:00Z,0.97
2024-04-14T10:45:00Z,0.97
2024-04-14T11:00:00Z,0.97
2024-04-14T11:15:00Z,0.97
2024-04-14T11:30:00Z,0.96
2024-04-14T11:45:00Z,0.96
2024-04-14T12:00:00Z,0.96
2024-04-14T12:15:00Z,0.96
2024-04-14T12:30:00Z,0.97
2024-04-14T12:45:00Z,0.96
2024-04-14T13:00:00Z,0.96
2024-04-14T13:15:00Z,0.96
2024-04-14T13:30:00Z,0.96
2024-04-14T13:45:00Z,0.96
2024-04-14T14:00:00Z,0.96
2024-04-14T14:15:00Z,0.96
2024-04-14T14:30:00Z,0.96
2024-04-14T14:45:00Z,0.96
2024-04-14T15:00:00Z,0.96
2024-04-14T15:15:00Z,0.96
2024-04-14T15:30:00Z,0.96
2024-04-14T15:45:00Z,0.97
2024-04-14T16:00:00Z,0.98
2024-04-14T16:15:00Z,0.97
2024-04-14T16:30:00Z,0.96
2024-04-14T16:45:00Z,0.95
2024-04-14T17:00:00Z,0.96
2024-04-14T17:15:00Z,0.96
2024-04-14T17:30:00Z,0.96
2024-04-14T17:45:00Z,0.96
2024-04-14T18:00:00Z,0.95
2024-04-14T18:15:00Z,0.95
2024-04-14T18:30:00Z,0.95
2024-04-14T18:45:00Z,0.94
2024-04-14T19:00:00Z,0.95
2024-04-14T19:15:00Z,0.95
2024-04-14T19:30:00Z,0.95
2024-04-14T19:45:00Z,0.94
2024-04-14T20:00:00Z,0.94
2024-04-14T20:15:00Z,0.94
2024-04-14T20:30:00Z,0.94
2024-04-14T20:45:00Z,0.94
2024-04-14T21:00:00Z,0.95
2024-04-14T21:15:00Z,0.95
2024-04-14T21:30:00Z,0.94
2024-04-14T21:45:00Z,0.94
2024-04-14T22:00:00Z,0.94
2024-04-14T22:15:00Z,0.94
2024-04-14T22:30:00Z,0.94
2024-04-14T22:45:00Z,0.94
2024-04-14T23:00:00Z,0.95
2024-04-14T23:15:00Z,0.95
2024-04-14T23:30:00Z,0.95
2024-04-14T23:45:00Z,0.95
2024-04-15T00:00:00Z,0.95
2024-04-15T00:15:00Z,0.95
2024-04-15T00:30:00Z,0.95
2024-04-15T00:45:00Z,0.95
2024-04-15T01:00:00Z,0.94
2024-04-15T01:15:00Z,0.94
2024-04-15T01:30:00Z,0.94
2024-04-15T01:45:00Z,0.95
2024-04-15T02:00:00Z,0.96
2024-04-15T02:15:00Z,0.96
2024-04-15T02:30:00Z,0.96
2024-04-15T02:45:00Z,0.96
2024-04-15T03:00:00Z,0.97
2024-04-15T03:15:00Z,0.99
2024-04-15T03:30:00Z,1.04
2024-04-15T03:45:00Z,1.08
2024-04-15T04:00:00Z,1.07
2024-04-15T04:15:00Z,1.05
2024-04-15T04:30:00Z,1.04
2024-04-15T04:45:00Z,1.03
2024-04-15T05:00:00Z,1.02
2024-04-15T05:15:00Z,1.03
2024-04-15T05:30:00Z,1.02
2024-04-15T05:45:00Z,1.04
2024-04-15T06:00:00Z,1.05
2024-04-15T06:15:00Z,1.06
2024-04-15T06:30:00Z,1.07
2024-04-15T06:45:00Z,1.10
2024-04-15T07:00:00Z,1.14
2024-04-15T07:15:00Z,1.15
2024-04-15T07:30:00Z,1.15
2024-04-15T07:45:00Z,1.15
2024-04-15T08:00:00Z,1.16
2024-04-15T08:15:00Z,1.16
2024-04-15T08:30:00Z,1.17
2024-04-15T08:45:00Z,1.21
2024-04-15T09:00:00Z,1.23
2024-04-15T09:15:00Z,1.24
2024-04-15T09:30:00Z,1.24
2024-04-15T09:45:00Z,1.24
2024-04-15T10:00:00Z,1.27
2024-04-15T10:15:00Z,1.31
2024-04-15T10:30:00Z,1.34
2024-04-15T10:45:00Z,1.37
2024-04-15T11:00:00Z,1.38
2024-04-15T11:15:00Z,1.38
2024-04-15T11:30:00Z,1.39
2024-04-15T11:45:00Z,1.38
2024-04-15T12:00:00Z,1.39
2024-04-15T12:15:00Z,1.42
2024-04-15T12:30:00Z,1.40
2024-04-15T12:45:00Z,1.41
2024-04-15T13:00:00Z,1.42
2024-04-15T13:15:00Z,1.43
2024-04-15T13:30:00Z,1.44
2024-04-15T13:45:00Z,1.45
2024-04-15T14:00:00Z,1.45
2024-04-15T14:15:00Z,1.45
2024-04-15T14:30:00Z,1.45
2024-04-15T14:45:00Z,1.47
2024-04-15T15:00:00Z,1.45
2024-04-15T15:15:00Z,1.47
2024-04-15T15:30:00Z,1.46
2024-04-15T15:45:00Z,1.47
2024-04-15T16:00:00Z,1.46
2024-04-15T16:15:00Z,1.48
2024-04-15T16:30:00Z,1.49
2024-04-15T16:45:00Z,1.47
2024-04-15T17:00:00Z,1.48
2024-04-15T17:15:00Z,1.47
2024-04-15T17:30:00Z,1.46
2024-04-15T17:45:00Z,1.48
2024-04-15T18:00:00Z,1.47
2024-04-15T18:15:00Z,1.46
2024-04-15T18:30:00Z,1.47
2024-04-15T18:45:00Z,1.46
2024-04-15T19:00:00Z,1.44
2024-04-15T19:15:00Z,1.45
2024-04-15T19:30:00Z,1.47
2024-04-15T19:45:00Z,1.46
2024-04-15T20:00:00Z,1.46
2024-04-15T20:15:00Z,1.47
2024-04-15T20:30:00Z,1.47
2024-04-15T20:45:00Z,1.44
2024-04-15T21:00:00Z,1.46
2024-04-15T21:15:00Z,1.43
2024-04-15T21:30:00Z,1.45
2024-04-15T21:45:00Z,1.44
2024-04-15T22:00:00Z,1.44
2024-04-15T22:15:00Z,1.45
2024-04-15T22:30:00Z,1.45
2024-04-15T22:45:00Z,1.44
2024-04-15T23:00:00Z,1.43
2024-04-15T23:15:00Z,1.42
2024-04-15T23:30:00Z,1.40
2024-04-15T23:45:00Z,1.40
2024-04-16T00:00:00Z,1.40
2024-04-16T00:15:00Z,1.39
2024-04-16T00:30:00Z,1.39
2024-04-16T00:45:00Z,1.39
2024-04-16T01:00:00Z,1.38
2024-04-16T01:15:00Z,1.37
2024-04-16T01:30:00Z,1.35
2024-04-16T01:45:00Z,1.36
2024-04-16T02:00:00Z,1.35
2024-04-16T02:15:00Z,1.35
2024-04-16T02:30:00Z,1.33
2024-04-16T02:45:00Z,1.34
2024-04-16T03:00:00Z,1.36
2024-04-16T03:15:00Z,1.33
2024-04-16T03:30:00Z,1.32
2024-04-16T03:45:00Z,1.32
2024-04-16T04:00:00Z,1.31
2024-04-16T04:15:00Z,1.31
2024-04-16T04:30:00Z,1.31
2024-04-16T04:45:00Z,1.32
2024-04-16T05:00:00Z,1.29
2024-04-16T05:15:00Z,1.31
2024-04-16T05:30:00Z,1.30
2024-04-16T05:45:00Z,1.29
2024-04-16T06:00:00Z,1.30
2024-04-16T06:15:00Z,1.28
2024-04-16T06:30:00Z,1.29
2024-04-16T06:45:00Z,1.27
2024-04-16T07:00:00Z,1.29
2024-04-16T07:15:00Z,1.28
2024-04-16T07:30:00Z,1.28
2024-04-16T07:45:00Z,1.28
2024-04-16T08:00:00Z,1.26
2024-04-16T08:15:00Z,1.26
2024-04-16T08:30:00Z,1.26
2024-04-16T08:45:00Z,1.25
2024-04-16T09:00:00Z,1.26
2024-04-16T09:15:00Z,1.25
2024-04-16T09:30:00Z,1.25
2024-04-16T09:45:00Z,1.24
2024-04-16T10:00:00Z,1.25
2024-04-16T10:15:00Z,1.24
2024-04-16T10:30:00Z,1.24
2024-04-16T10:45:00Z,1.24
2024-04-16T11:00:00Z,1.23
2024-04-16T11:15:00Z,1.23
2024-04-16T11:30:00Z,1.23
2024-04-16T11:45:00Z,1.22
2024-04-16T12:00:00Z,1.21
2024-04-16T12:15:00Z,1.21
2024-04-16T12:30:00Z,1.21
2024-04-16T12:45:00Z,1.20
2024-04-16T13:00:00Z,1.20
2024-04-16T13:15:00Z,1.20
2024-04-16T13:30:00Z,1.20
2024-04-16T13:45:00Z,1.20
2024-04-16T14:00:00Z,1.19
2024-04-16T14:15:00Z,1.19
2024-04-16T14:30:00Z,1.19
2024-04-16T14:45:00Z,1.19
2024-04-16T15:00:00Z,1.19
2024-04-16T15:15:00Z,1.18
2024-04-16T15:30:00Z,1.19
2024-04-16T15:45:00Z,1.18
2024-04-16T16:00:00Z,1.17
2024-04-16T16:15:00Z,1.17
2024-04-16T16:30:00Z,1.17
2024-04-16T16:45:00Z,1.17
2024-04-16T17:00:00Z,1.16
2024-04-16T17:15:00Z,1.16
2024-04-16T17:30:00Z,1.15
2024-04-16T17:45:00Z,1.15
2024-04-16T18:00:00Z,1.15
2024-04-16T18:15:00Z,1.15
2024-04-16T18:30:00Z,1.14
2024-04-16T18:45:00Z,1.14
2024-04-16T19:00:00Z,1.13
2024-04-16T19:15:00Z,1.14
2024-04-16T19:30:00Z,1.14
2024-04-16T19:45:00Z,1.14
2024-04-16T20:00:00Z,1.14
2024-04-16T20:15:00Z,1.15
2024-04-16T20:30:00Z,1.17
2024-04-16T20:45:00Z,1.16
2024-04-16T21:00:00Z,1.16
2024-04-16T21:15:00Z,1.15
2024-04-16T21:30:00Z,1.15
2024-04-16T21:45:00Z,1.15
2024-04-16T22:00:00Z,1.14
2024-04-16T22:15:00Z,1.15
2024-04-16T22:30:00Z,1.15
2024-04-16T22:45:00Z,1.16
2024-04-16T23:00:00Z,1.15
2024-04-16T23:15:00Z,1.15
2024-04-16T23:30:00Z,1.15
2024-04-16T23:45:00Z,1.14
2024-04-17T00:00:00Z,1.14
2024-04-17T00:15:00Z,1.13
2024-04-17T00:30:00Z,1.13
2024-04-17T00:45:00Z,1.13
2024-04-17T01:00:00Z,1.13
2024-04-17T01:15:00Z,1.12
2024-04-17T01:30:00Z,1.12
2024-04-17T01:45:00Z,1.11
2024-04-17T02:00:00Z,1.11
2024-04-17T02:15:00Z,1.12
2024-04-17T02:30:00Z,1.11
2024-04-17T02:45:00Z,1.11
2024-04-17T03:00:00Z,1.11
2024-04-17T03:15:00Z,1.10
2024-04-17T03:30:00Z,1.10
2024-04-17T03:45:00Z,1.10
2024-04-17T04:00:00Z,1.10
2024-04-17T04:15:00Z,1.11
2024-04-17T04:30:00Z,1.10
2024-04-17T04:45:00Z,1.10
2024-04-17T05:00:00Z,1.10
2024-04-17T05:15:00Z,1.11
2024-04-17T05:30:00Z,1.10
2024-04-17T05:45:00Z,1.11
2024-04-17T06:00:00Z,1.11
2024-04-17T06:15:00Z,1.10
2024-04-17T06:30:00Z,1.11
2024-04-17T06:45:00Z,1.10
2024-04-17T07:00:00Z,1.11
2024-04-17T07:15:00Z,1.10
2024-04-17T07:30:00Z,1.10
2024-04-17T07:45:00Z,1.10
2024-04-17T08:00:00Z,1.10
2024-04-17T08:15:00Z,1.09
2024-04-17T08:30:00Z,1.10
2024-04-17T08:45:00Z,1.10
2024-04-17T09:00:00Z,1.09
2024-04-17T09:15:00Z,1.10
2024-04-17T09:30:00Z,1.09
2024-04-17T09:45:00Z,1.09
2024-04-17T10:00:00Z,1.09
2024-04-17T10:15:00Z,1.09
2024-04-17T10:30:00Z,1.09
2024-04-17T10:45:00Z,1.09
2024-04-17T11:00:00Z,1.09
2024-04-17T11:15:00Z,1.08
2024-04-17T11:30:00Z,1.09
2024-04-17T11:45:00Z,1.09
2024-04-17T12:00:00Z,1.09
2024-04-17T12:15:00Z,1.08
2024-04-17T12:30:00Z,1.09
2024-04-17T12:45:00Z,1.08
2024-04-17T13:00:00Z,1.08
2024-04-17T13:15:00Z,1.07
2024-04-17T13:30:00Z,1.08
2024-04-17T13:45:00Z,1.07
2024-04-17T14:00:00Z,1.06
2024-04-17T14:15:00Z,1.07
2024-04-17T14:30:00Z,1.06
2024-04-17T14:45:00Z,1.05
2024-04-17T15:00:00Z,1.05
2024-04-17T15:15:00Z,1.05
2024-04-17T15:30:00Z,1.06
2024-04-17T15:45:00Z,1.05
2024-04-17T16:00:00Z,1.06
2024-04-17T16:15:00Z,1.06
2024-04-17T16:30:00Z,1.06
2024-04-17T16:45:00Z,1.06
2024-04-17T17:00:00Z,1.06
2024-04-17T17:15:00Z,1.06
2024-04-17T17:30:00Z,1.06
2024-04-17T17:45:00Z,1.06
2024-04-17T18:00:00Z,1.05
2024-04-17T18:15:00Z,1.06
2024-04-17T18:30:00Z,1.05
2024-04-17T18:45:00Z,1.05
2024-04-17T19:00:00Z,1.05
2024-04-17T19:15:00Z,1.04
2024-04-17T19:30:00Z,1.05
2024-04-17T19:45:00Z,1.03
2024-04-17T20:00:00Z,1.04
2024-04-17T20:15:00Z,1.04
2024-04-17T20:30:00Z,1.04
2024-04-17T20:45:00Z,1.03
2024-04-17T21:00:00Z,1.03
2024-04-17T21:15:00Z,1.03
2024-04-17T21:30:00Z,1.04
2024-04-17T21:45:00Z,1.03
2024-04-17T22:00:00Z,1.03
2024-04-17T22:15:00Z,1.03
2024-04-17T22:30:00Z,1.03
2024-04-17T22:45:00Z,1.02
2024-04-17T23:00:00Z,1.02
2024-04-17T23:15:00Z,1.02
2024-04-17T23:30:00Z,1.01
2024-04-17T23:45:00Z,1.01
2024-04-18T00:00:00Z,1.01
2024-04-18T00:15:00Z,1.01
2024-04-18T00:30:00Z,1.01
2024-04-18T00:45:00Z,1.01
2024-04-18T01:00:00Z,1.01
2024-04-18T01:15:00Z,1.00
2024-04-18T01:30:00Z,1.00
2024-04-18T01:45:00Z,1.01
2024-04-18T02:00:00Z,1.00
2024-04-18T02:15:00Z,1.00
2024-04-18T02:30:00Z,1.00
2024-04-18T02:45:00Z,0.99
2024-04-18T03:00:00Z,1.00
2024-04-18T03:15:00Z,1.00
2024-04-18T03:30:00Z,1.00
2024-04-18T03:45:00Z,0.99
2024-04-18T04:00:00Z,0.99
2024-04-18T04:15:00Z,1.00
2024-04-18T04:30:00Z,1.00
2024-04-18T04:45:00Z,0.99
2024-04-18T05:00:00Z,0.99
2024-04-18T05:15:00Z,1.00
2024-04-18T05:30:00Z,1.00
2024-04-18T05:45:00Z,0.99
2024-04-18T06:00:00Z,0.99
2024-04-18T06:15:00Z,0.99
2024-04-18T06:30:00Z,0.99
2024-04-18T06:45:00Z,0.99
2024-04-18T07:00:00Z,1.00
2024-04-18T07:15:00Z,0.99
2024-04-18T07:30:00Z,0.99
2024-04-18T07:45:00Z,0.99
2024-04-18T08:00:00Z,0.99
2024-04-18T08:15:00Z,0.99
2024-04-18T08:30:00Z,0.99
2024-04-18T08:45:00Z,0.99
2024-04-18T09:00:00Z,0.99
2024-04-18T09:15:00Z,0.99
2024-04-18T09:30:00Z,1.00
2024-04-18T09:45:00Z,0.99
2024-04-18T10:00:00Z,0.99
2024-04-18T10:15:00Z,0.99
2024-04-18T10:30:00Z,1.00
2024-04-18T10:45:00Z,1.00
2024-04-18T11:00:00Z,1.00
2024-04-18T11:15:00Z,1.00
2024-04-18T11:30:00Z,1.00
2024-04-18T11:45:00Z,1.00
2024-04-18T12:00:00Z,1.00
2024-04-18T12:15:00Z,1.00
2024-04-18T12:30:00Z,1.01
2024-04-18T12:45:00Z,0.99
2024-04-18T13:00:00Z,0.99
2024-04-18T13:15:00Z,0.99
2024-04-18T13:30:00Z,1.00
2024-04-18T13:45:00Z,0.99
2024-04-18T14:00:00Z,0.99
2024-04-18T14:15:00Z,0.99
2024-04-18T14:30:00Z,0.99
2024-04-18T14:45:00Z,0.99
2024-04-18T15:00:00Z,0.99
2024-04-18T15:15:00Z,0.99
2024-04-18T15:30:00Z,0.99
2024-04-18T15:45:00Z,0.99
2024-04-18T16:00:00Z,1.00
2024-04-18T16:15:00Z,1.01
2024-04-18T16:30:00Z,1.02
2024-04-18T16:45:00Z,1.02
2024-04-18T17:00:00Z,1.02
2024-04-18T17:15:00Z,1.02
2024-04-18T17:30:00Z,1.02
2024-04-18T17:45:00Z,1.01
2024-04-18T18:00:00Z,1.02
2024-04-18T18:15:00Z,1.02
2024-04-18T18:30:00Z,1.02
2024-04-18T18:45:00Z,1.02
2024-04-18T19:00:00Z,1.02
2024-04-18T19:15:00Z,1.02
2024-04-18T19:30:00Z,1.02
2024-04-18T19:45:00Z,1.04
2024-04-18T20:00:00Z,1.04
2024-04-18T20:15:00Z,1.04
2024-04-18T20:30:00Z,1.04
2024-04-18T20:45:00Z,1.03